Temperature
20 20 20 20 19 19 19 20 20 20 19 19 19 19 19 19 19 19 19 19 19 19 19 19 19 19 19 19 19 19 19 19 18 18 18 18 18 18 18 18 18 18 18
20 20 20 20 20 20 19 19 19 19 19 19 19 19 19 19 19 19 19 19 19 19 19 19 19 19 19 19 19 19 19 18 18 18 18 18 18 18 18 18 18 18 18
20 20 20 20 20 20 20 20 19 19 19 19 19 19 19 19 19 19 19 19 19 19 19 19 19 19 19 19 19 19 18 18 18 18 18 18 18 18 18 18 18 18 18
20 20 20 20 20 20 20 20 19 19 19 19 19 19 19 19 19 19 19 19 19 19 19 19 19 19 19 19 19 18 18 18 18 18 18 18 18 18 18 18 18 18 18
20 20 20 20 20 19 19 19 19 19 19 19 19 19 19 19 19 19 19 19 19 19 19 19 19 19 19 19 19 18 18 18 18 18 18 18 18 18 18 18 18 18 18
20 20 20 20 20 19 19 19 19 19 19 19 19 19 19 19 19 19 19 19 19 19 19 19 19 19 19 19 18 18 18 18 18 18 18 18 18 18 18 18 18 18 18
20 20 20 20 20 19 19 19 19 19 19 19 19 19 19 19 19 19 19 19 19 19 19 19 19 19 19 19 18 18 18 18 18 18 18 18 18 18 18 18 18 18 18
20 20 20 20 20 19 19 19 19 19 19 19 19 19 19 19 19 19 19 19 19 19 19 19 19 19 19 19 18 18 18 18 18 18 18 18 18 18 18 18 18 18 18
20 20 20 19 19 19 19 19 19 19 19 19 19 19 19 19 19 19 19 19 19 19 19 19 19 19 19 19 18 18 18 18 18 18 18 18 18 18 18 18 18 18 18
20 20 19 19 19 19 19 19 19 19 19 19 19 19 19 19 19 19 19 19 19 19 19 19 19 19 19 19 19 18 18 18 18 18 18 18 18 18 18 18 18 18 18
20 19 19 19 19 19 19 19 19 19 19 19 19 19 19 19 19 19 19 19 19 18 18 18 18 19 19 18 18 18 18 18 18 18 18 18 18 18 18 18 18 18 18
20 19 19 19 19 19 19 19 19 19 19 19 19 19 19 19 19 18 18 18 18 18 18 18 18 18 18 18 18 18 18 18 18 18 18 18 18 18 18 18 18 18 18
20 19 19 19 19 19 19 19 19 19 19 19 19 19 19 19 18 18 18 18 18 18 18 18 18 18 18 18 18 18 18 18 18 18 18 18 18 18 18 18 18 18 18
20 19 19 19 19 19 19 19 19 19 19 19 19 19 19 18 18 18 18 18 18 18 18 18 18 18 18 18 18 18 18 18 18 18 18 18 18 18 18 18 18 18 18
20 20 19 19 19 19 19 19 19 19 19 19 19 19 19 19 19 19 18 18 18 18 18 18 18 18 18 18 18 18 18 18 18 18 18 18 18 18 18 18 18 18 18
20 20 19 19 19 19 19 19 19 19 19 19 19 19 19 19 19 18 18 18 18 18 18 18 18 18 18 18 18 18 18 18 18 18 18 18 18 18 18 18 18 18 18
20 20 20 20 19 19 19 19 19 19 19 19 19 19 19 19 19 19 18 18 18 18 18 18 18 18 18 18 18 18 18 18 18 19 19 19 18 18 18 18 18 18 18
21 21 20 20 20 19 19 19 19 19 19 19 19 19 19 19 19 19 18 18 18 18 18 18 18 18 18 18 18 18 19 19 19 19 19 19 19 19 18 18 18 18 18
21 21 20 20 20 20 19 19 19 19 19 19 19 19 19 19 19 19 18 18 18 18 18 18 18 18 18 18 18 18 18 19 19 19 19 19 19 19 19 18 18 18 18
21 21 21 20 20 20 19 19 19 19 19 19 19 19 19 19 19 19 18 18 18 18 18 18 18 18 18 18 18 18 18 18 19 19 19 19 19 19 19 18 18 18 18
21 21 21 21 20 20 20 19 19 19 19 19 19 19 19 19 19 19 19 18 18 18 18 18 18 18 18 18 18 18 18 18 18 18 19 19 19 19 19 18 18 18 18
21 21 21 21 20 20 20 20 20 19 19 19 19 19 19 19 19 19 19 19 18 18 18 18 18 18 18 18 18 18 18 18 18 18 18 19 19 18 18 18 18 18 18
21 21 21 21 20 20 20 20 19 19 19 19 19 19 19 19 19 19 19 19 18 18 18 18 18 18 18 18 18 18 18 18 18 19 19 19 19 18 18 18 18 18 18
22 21 21 21 20 20 20 20 20 20 19 19 19 19 19 19 19 19 19 19 18 18 18 18 18 18 18 18 18 18 18 18 18 18 18 19 18 19 19 19 18 18 18
22 21 21 21 21 20 20 20 20 20 20 19 19 19 19 19 19 19 19 19 19 19 18 18 18 18 18 18 18 18 18 18 18 18 18 19 19 19 19 19 18 18 18
22 21 21 21 21 20 20 20 20 20 20 19 19 19 19 19 19 19 19 19 19 19 19 18 18 18 18 18 18 18 18 18 18 18 18 18 18 19 19 19 19 18 18
Wind_Speed
3 6 14 15 16 17 18 18 18 19 19 21 22 22 22 22 22 23 23 22 21 19 19 18 18 17 17 16 17 16 16 16 17 17 17 16 16 16 16 16 16 15 16
6 9 15 16 16 17 18 18 18 18 19 20 21 22 22 22 22 22 22 21 20 19 19 18 17 17 16 16 16 16 16 16 16 16 16 15 15 15 15 15 15 14 15
7 10 15 16 17 17 18 18 18 18 19 20 20 21 22 22 21 21 21 21 20 19 18 17 17 16 16 16 15 15 15 16 16 15 14 12 12 14 15 16 15 15 15
8 10 13 17 17 18 18 18 18 18 19 19 20 21 21 21 21 21 20 20 19 19 18 17 16 15 15 15 14 14 14 14 14 13 10 10 11 14 15 15 15 15 14
8 10 14 17 18 18 18 18 18 18 19 19 20 20 21 21 20 20 20 19 19 18 17 16 15 14 14 14 13 12 12 12 12 11 10 10 11 14 15 15 14 14 13
7 10 14 17 17 18 18 18 18 18 19 19 19 19 20 20 20 19 19 18 18 17 16 14 14 13 13 12 12 11 10 11 11 9 10 11 12 14 15 14 14 13 12
8 9 13 16 17 17 18 18 18 18 19 19 19 19 20 20 19 19 19 18 17 17 15 13 12 12 12 11 10 9 9 9 8 9 9 10 12 14 14 14 13 12 12
10 8 12 15 17 17 17 17 17 18 18 18 18 19 19 19 19 18 18 17 16 16 14 12 11 11 10 9 8 8 7 7 8 8 9 11 13 14 14 13 13 12 12
9 8 8 11 13 16 16 16 17 17 17 17 18 18 18 18 18 17 17 17 16 15 14 12 10 9 9 8 7 6 6 6 7 8 10 11 13 15 14 13 13 12 11
8 6 6 7 9 10 12 15 16 16 17 17 17 17 17 17 17 17 17 16 16 15 13 12 10 8 8 7 6 5 4 4 6 8 9 11 15 15 14 13 12 12 11
7 5 5 5 6 8 10 13 14 15 16 16 15 16 15 13 14 15 16 16 16 15 13 12 10 8 6 5 5 4 2 2 4 8 9 12 15 15 14 13 12 12 11
7 5 4 5 5 6 8 8 9 11 11 11 11 12 11 11 12 13 15 16 15 14 13 11 10 8 5 4 3 3 2 2 4 7 9 13 15 16 15 14 13 12 12
8 7 5 5 6 5 4 6 6 7 8 9 10 10 10 9 9 8 8 10 11 11 9 9 8 6 5 4 3 3 3 2 5 8 10 14 16 16 15 14 13 13 12
8 7 6 5 5 5 5 5 5 5 6 6 8 10 9 6 5 6 6 7 7 7 6 6 5 5 5 5 5 4 3 3 5 7 11 14 16 16 15 15 14 13 13
9 8 6 6 6 5 5 4 6 5 6 7 8 8 9 6 5 5 5 6 6 6 5 5 4 4 3 4 4 4 3 4 5 7 10 14 15 16 16 15 15 14 14
9 8 6 7 6 6 5 4 5 6 7 7 7 9 10 8 6 6 5 5 5 7 7 6 5 4 3 2 3 3 4 4 6 8 9 12 14 15 15 15 15 15 15
10 8 7 7 6 6 6 5 5 6 7 6 7 9 10 9 8 6 5 5 5 7 7 5 3 2 2 2 2 2 3 4 5 6 8 10 12 14 15 15 15 16 15
10 8 8 8 7 7 6 5 5 6 6 6 8 8 9 10 9 6 5 5 6 6 5 4 3 2 2 2 2 2 2 3 5 6 7 9 10 11 14 16 16 15 16
11 10 8 7 7 7 6 5 4 5 6 7 8 8 8 9 10 7 5 4 6 5 4 4 3 3 2 2 2 2 2 3 3 5 6 8 10 11 11 13 15 16 16
11 10 9 8 7 6 5 4 3 4 4 6 7 8 9 9 9 7 5 5 5 4 4 4 3 3 3 2 2 2 2 3 3 3 5 6 9 11 12 12 12 13 15
10 10 9 9 7 6 4 4 4 4 4 4 6 8 10 9 9 7 5 5 5 5 5 5 4 3 2 2 1 2 3 2 2 3 3 3 5 8 10 11 11 11 11
12 11 10 9 8 7 6 4 4 4 4 4 5 6 9 9 8 8 6 5 6 5 5 5 4 3 2 3 3 1 2 3 3 3 3 4 5 5 6 9 10 11 11
12 12 11 10 9 7 6 4 3 3 2 3 4 4 6 8 8 7 7 6 6 6 6 6 6 5 4 3 4 4 2 3 2 3 2 3 3 3 4 5 8 10 11
13 12 10 10 9 8 7 6 6 6 5 5 5 5 5 7 8 8 7 7 6 5 6 6 5 4 5 4 3 3 3 4 2 2 3 3 3 4 4 4 5 8 11
12 11 10 9 8 8 7 7 7 5 5 4 4 5 5 5 6 7 7 6 6 6 6 6 4 5 5 5 4 2 2 2 3 3 3 3 3 3 3 4 3 5 8
10 10 10 10 9 8 8 7 7 7 6 5 5 6 5 4 5 6 7 6 6 6 7 7 6 6 5 5 4 4 3 3 3 3 4 3 3 4 3 3 3 4 6
Wind_Direction
162 152 140 135 129 128 127 126 124 123 122 122 122 122 122 123 126 128 130 131 132 132 130 129 127 127 126 126 125 122 121 120 119 117 117 116 117 117 114 112 110 110 113
158 155 143 137 132 129 127 126 127 126 125 124 124 124 125 126 126 128 130 131 132 132 132 131 128 127 128 127 126 124 123 122 120 120 119 117 118 119 119 117 115 118 116
145 149 144 139 135 131 130 129 129 129 128 127 127 127 128 128 129 130 131 132 132 132 132 132 130 129 128 129 128 126 125 124 122 120 118 115 120 121 120 121 120 121 120
136 140 141 140 138 134 132 131 132 131 131 131 131 131 132 131 131 132 132 131 132 133 133 133 133 132 131 131 130 129 129 128 127 126 122 122 124 126 125 125 124 124 124
123 131 138 137 138 136 134 134 135 134 134 134 134 134 134 134 134 135 134 133 133 134 134 134 135 136 135 133 131 132 132 132 131 128 129 130 132 134 131 131 129 128 128
119 127 134 135 138 137 138 138 138 137 137 138 137 138 138 139 139 139 136 136 135 135 135 136 138 140 140 137 135 135 134 136 131 131 135 137 140 142 139 137 134 133 132
120 129 135 135 138 140 141 141 140 140 141 142 142 142 143 143 143 143 140 140 140 139 139 140 142 144 145 142 140 139 135 139 137 140 144 146 148 147 144 142 141 140 139
126 126 132 134 140 142 143 143 142 143 144 144 146 146 146 147 146 146 145 145 146 145 145 144 144 146 148 147 146 143 137 137 138 145 148 154 156 153 150 149 148 148 147
123 126 129 137 140 144 144 144 145 148 149 149 148 150 151 151 152 152 150 151 151 151 151 150 147 149 154 157 158 159 151 135 139 150 156 160 162 159 157 157 158 158 159
113 118 122 133 136 141 145 148 149 151 152 152 152 153 154 156 156 158 157 158 158 157 156 156 154 154 161 169 175 176 159 130 144 159 161 168 168 166 165 165 165 166 167
118 120 122 128 130 137 147 152 152 153 156 155 155 155 154 156 158 161 163 165 165 164 164 165 166 165 168 179 187 194 182 144 158 168 171 175 174 172 172 174 175 176 177
137 138 131 139 142 141 143 143 147 152 153 152 153 154 152 154 162 165 171 172 170 170 172 177 180 181 185 204 210 222 214 187 180 181 184 182 181 179 179 182 183 185 188
152 148 144 146 146 142 136 137 140 145 147 149 152 153 153 154 164 169 175 176 175 176 181 186 189 197 207 223 232 234 220 199 187 187 189 188 186 186 188 190 191 193 195
149 153 154 149 146 143 140 140 144 146 149 155 161 159 157 157 160 167 167 172 179 182 183 192 201 208 211 220 224 223 219 202 181 185 189 191 192 194 196 197 199 201 202
150 152 151 146 142 146 142 150 147 151 155 162 168 169 163 158 160 165 167 172 182 182 186 187 191 201 210 225 228 214 195 190 187 183 191 196 198 199 202 204 206 209 210
157 155 153 143 146 149 148 145 148 158 161 164 171 173 170 169 165 163 166 174 187 191 194 195 193 193 206 218 220 216 205 202 193 190 196 202 205 205 208 212 215 214 215
161 156 156 152 149 149 151 151 150 162 164 167 175 176 174 171 169 167 166 176 188 187 187 189 190 190 198 204 213 227 210 206 205 202 200 201 207 212 215 217 221 220 221
159 158 163 159 152 151 151 148 148 160 164 170 174 176 176 173 170 166 169 182 190 185 180 176 179 183 205 204 217 239 227 210 208 211 204 204 207 215 219 222 222 222 224
164 163 163 158 158 159 155 153 155 158 162 172 174 176 179 178 177 174 175 183 183 177 175 186 179 177 189 212 227 242 239 225 216 217 211 211 210 215 218 224 226 226 228
167 165 165 162 165 164 155 148 151 158 166 174 177 179 179 181 183 180 179 181 176 169 180 181 177 182 189 197 227 262 266 250 234 222 217 214 220 222 222 224 225 227 229
167 167 170 169 174 167 160 166 169 175 171 171 178 178 180 181 181 176 177 174 175 179 188 183 173 180 203 164 107 333 318 287 249 236 222 210 223 226 223 222 221 222 229
172 173 174 176 175 175 177 176 172 164 167 172 174 180 186 184 182 181 174 180 181 180 183 185 174 171 203 172 150 111 333 326 300 252 233 222 229 228 230 226 221 219 221
177 176 178 178 176 177 172 155 148 130 128 153 170 184 191 188 187 187 183 182 184 182 188 194 186 180 195 203 177 162 173 234 287 301 273 247 241 234 238 234 223 219 218
181 177 175 174 172 175 172 167 165 171 179 192 187 190 193 192 192 195 192 187 185 185 188 197 193 186 181 200 215 208 191 178 194 277 300 276 259 243 240 239 234 227 224
178 177 176 172 173 176 176 178 177 180 184 180 178 186 195 198 198 199 194 188 189 191 194 199 197 195 189 194 201 207 219 220 194 193 261 282 285 264 248 231 230 232 230
176 175 177 176 180 181 179 179 180 181 182 179 187 193 200 203 205 204 199 195 197 196 200 201 203 201 202 201 205 200 195 202 208 200 226 253 264 272 263 240 227 236 235
Height
1498 1497 1497 1497 1497 1499 1501 1503 1505 1507 1509 1511 1513 1515 1517 1519 1521 1523 1525 1528 1531 1533 1536 1538 1540 1542 1544 1546 1548 1549 1550 1552 1553 1554 1555 1556 1556 1557 1558 1558 1559 1560 1560
1497 1497 1498 1499 1499 1501 1502 1505 1507 1508 1510 1512 1514 1516 1518 1520 1523 1525 1527 1530 1532 1535 1537 1540 1542 1544 1546 1548 1549 1551 1552 1553 1554 1556 1556 1557 1558 1559 1559 1560 1561 1561 1562
1497 1497 1498 1499 1501 1502 1504 1505 1507 1509 1511 1513 1515 1517 1519 1522 1524 1526 1529 1531 1534 1536 1539 1541 1543 1545 1547 1549 1550 1552 1553 1554 1556 1557 1558 1559 1559 1560 1561 1561 1562 1563 1563
1497 1497 1497 1499 1501 1503 1504 1506 1508 1510 1512 1514 1516 1518 1521 1523 1525 1528 1530 1533 1535 1537 1540 1542 1544 1546 1548 1550 1551 1553 1554 1556 1557 1558 1559 1560 1560 1561 1562 1563 1563 1564 1565
1498 1497 1498 1499 1502 1504 1505 1507 1509 1511 1513 1515 1517 1520 1522 1525 1527 1530 1532 1534 1536 1539 1541 1543 1545 1547 1549 1551 1553 1554 1556 1557 1558 1559 1560 1561 1562 1562 1563 1564 1565 1565 1566
1499 1499 1499 1500 1502 1504 1506 1508 1510 1512 1514 1517 1519 1521 1523 1526 1528 1531 1533 1536 1538 1540 1542 1544 1546 1548 1550 1552 1554 1555 1557 1558 1559 1560 1561 1562 1563 1563 1564 1565 1566 1566 1567
1501 1500 1501 1502 1504 1506 1508 1509 1511 1513 1515 1518 1520 1522 1525 1527 1530 1532 1535 1537 1539 1541 1543 1545 1547 1549 1551 1553 1555 1556 1557 1559 1560 1561 1562 1563 1564 1565 1565 1566 1567 1567 1568
1503 1503 1503 1503 1505 1507 1509 1511 1512 1514 1516 1519 1521 1524 1526 1529 1531 1533 1536 1538 1540 1542 1544 1546 1548 1549 1551 1553 1555 1557 1558 1559 1561 1562 1563 1564 1565 1565 1566 1567 1567 1568 1568
1506 1506 1506 1506 1507 1509 1510 1511 1513 1515 1518 1520 1522 1525 1527 1530 1532 1534 1537 1539 1541 1543 1545 1547 1549 1550 1552 1554 1556 1558 1559 1560 1561 1562 1563 1564 1565 1566 1566 1567 1568 1568 1569
1508 1508 1508 1508 1509 1510 1511 1512 1514 1516 1519 1521 1523 1526 1528 1530 1533 1535 1537 1540 1542 1544 1546 1547 1550 1551 1553 1555 1557 1558 1560 1561 1562 1563 1564 1565 1566 1566 1567 1567 1568 1568 1569
1510 1510 1510 1510 1511 1511 1512 1513 1515 1517 1520 1522 1524 1527 1529 1531 1533 1536 1538 1541 1543 1545 1547 1549 1551 1553 1554 1556 1557 1559 1560 1561 1562 1563 1564 1565 1566 1566 1567 1567 1568 1568 1569
1510 1511 1511 1511 1512 1512 1513 1514 1515 1517 1520 1523 1525 1527 1530 1532 1534 1537 1539 1542 1544 1546 1547 1549 1551 1553 1555 1557 1558 1559 1560 1561 1563 1564 1564 1565 1566 1566 1567 1567 1567 1568 1568
1511 1511 1512 1512 1513 1513 1514 1515 1516 1518 1521 1523 1526 1528 1530 1533 1535 1537 1540 1542 1544 1546 1548 1550 1552 1554 1555 1557 1558 1559 1561 1562 1562 1563 1564 1565 1565 1566 1566 1566 1567 1567 1568
1511 1512 1513 1513 1514 1515 1515 1516 1517 1519 1522 1524 1527 1529 1531 1533 1536 1538 1540 1543 1545 1547 1549 1550 1552 1554 1555 1557 1558 1559 1561 1562 1562 1563 1564 1565 1565 1565 1565 1566 1566 1566 1567
1512 1513 1514 1515 1515 1516 1516 1517 1518 1520 1523 1525 1527 1530 1531 1533 1535 1538 1540 1543 1545 1547 1549 1550 1552 1554 1556 1557 1558 1559 1561 1562 1562 1563 1563 1564 1564 1564 1565 1565 1565 1565 1566
1512 1513 1514 1515 1516 1517 1518 1519 1520 1522 1524 1526 1528 1530 1532 1534 1536 1538 1541 1543 1545 1547 1549 1551 1552 1554 1555 1557 1558 1559 1560 1561 1562 1562 1563 1563 1563 1564 1564 1564 1564 1564 1564
1512 1514 1515 1516 1517 1518 1519 1520 1521 1523 1525 1527 1528 1531 1533 1534 1537 1539 1541 1543 1545 1547 1549 1551 1552 1554 1555 1556 1558 1559 1560 1560 1561 1561 1562 1562 1562 1563 1563 1563 1563 1563 1563
1512 1514 1515 1516 1517 1518 1520 1521 1522 1524 1525 1527 1529 1531 1533 1535 1537 1539 1541 1543 1545 1547 1548 1550 1551 1553 1554 1556 1557 1558 1559 1559 1560 1560 1561 1561 1561 1561 1562 1562 1562 1562 1562
1512 1514 1515 1516 1517 1519 1520 1521 1523 1524 1525 1527 1529 1531 1533 1535 1537 1538 1540 1542 1544 1546 1548 1549 1551 1552 1554 1555 1556 1557 1558 1558 1558 1559 1559 1559 1560 1560 1560 1560 1560 1560 1560
1512 1514 1515 1516 1518 1519 1520 1522 1523 1524 1525 1526 1528 1530 1532 1534 1536 1538 1540 1542 1543 1545 1547 1548 1550 1551 1553 1554 1555 1556 1556 1557 1557 1557 1557 1558 1558 1558 1558 1559 1559 1558 1558
1511 1513 1514 1516 1517 1519 1520 1521 1521 1522 1524 1525 1527 1529 1532 1534 1535 1537 1539 1541 1542 1544 1545 1547 1549 1550 1551 1553 1554 1554 1555 1555 1555 1555 1555 1556 1556 1556 1556 1557 1557 1556 1556
1510 1511 1513 1515 1517 1518 1519 1520 1521 1522 1524 1525 1527 1529 1531 1533 1535 1536 1538 1540 1541 1543 1544 1546 1547 1548 1550 1551 1552 1553 1553 1554 1553 1553 1553 1553 1554 1554 1554 1554 1554 1554 1554
1508 1509 1512 1514 1515 1517 1519 1520 1521 1522 1523 1525 1526 1528 1530 1532 1534 1536 1537 1539 1540 1542 1543 1544 1546 1547 1548 1550 1551 1551 1551 1551 1551 1551 1551 1551 1551 1551 1551 1552 1552 1551 1551
1505 1508 1511 1513 1514 1516 1518 1519 1519 1520 1521 1523 1525 1527 1530 1531 1533 1535 1536 1538 1539 1540 1541 1543 1545 1546 1547 1547 1548 1549 1550 1549 1550 1549 1549 1549 1549 1549 1549 1549 1549 1548 1548
1503 1506 1509 1511 1513 1515 1516 1517 1519 1519 1521 1523 1525 1527 1528 1530 1531 1533 1534 1536 1537 1538 1539 1541 1542 1543 1544 1545 1546 1547 1548 1548 1548 1547 1546 1546 1546 1546 1546 1546 1545 1545 1545
1502 1505 1508 1510 1511 1513 1515 1516 1517 1518 1520 1522 1523 1525 1527 1528 1530 1531 1532 1534 1535 1536 1537 1538 1540 1541 1542 1542 1543 1544 1545 1545 1545 1545 1544 1543 1543 1543 1543 1543 1542 1542 1542